This demonstration page uses our WeatherBlox Daily Observations layout. Learn more.

Left ArrowRight Arrow

40.92945, -100.16068

Hourly Observations for January 12, 2021

Temp ( °F °C ) Dew Point ( °F °C ) Humidity (%) Winds ( mph kmh ) Pressure ( in mb ) Visibility ( mi km ) Precip ( " mm )
12:15 am 00:15 Clear 28 -2.1 24 -4.3 85 85 WNW 3 6 30.25 1024 10 16.0934 0 0
12:35 am 00:35 Clear 29 -1.7 24 -4.6 81 81 WNW 7 11 30.24 1024 10 16.0934 0 0
12:55 am 00:55 Clear 29 -1.7 24 -4.6 81 81 WNW 9 15 30.24 1024 10 16.0934 0 0
1:15 am 01:15 Clear 29 -1.9 24 -4.6 82 82 WNW 7 11 30.24 1024 10 16.0934 0 0
1:35 am 01:35 Clear 28 -2.3 23 -5 82 82 WNW 8 13 30.24 1024 10 16.0934 0 0
1:55 am 01:55 Clear 27 -2.7 23 -5 84 84 WNW 8 13 30.25 1025 10 16.0934 0 0
2:15 am 02:15 Clear 28 -2.3 23 -5 82 82 WNW 7 11 30.25 1024 10 16.0934 0 0
2:35 am 02:35 Clear 28 -2.5 23 -5 83 83 W 7 11 30.25 1024 10 16.0934 0 0
2:55 am 02:55 Clear 27 -2.7 23 -5.2 83 83 WNW 8 13 30.25 1025 10 16.0934 0 0
3:15 am 03:15 Clear 27 -3 22 -5.3 84 84 WNW 9 15 30.26 1025 10 16.0934 0 0
3:35 am 03:35 Clear 27 -2.6 23 -5.2 83 83 WNW 10 17 30.25 1025 10 16.0934 0 0
3:55 am 03:55 Clear 27 -2.8 23 -5.1 84 84 WNW 9 15 30.26 1025 10 16.0934 0 0
4:15 am 04:15 Clear 27 -3 22 -5.3 84 84 WNW 9 15 30.26 1025 10 16.0934 0 0
4:35 am 04:35 Clear 28 -2.5 23 -5.1 83 83 WNW 9 15 30.25 1024 10 16.0934 0 0
4:55 am 04:55 Clear 28 -2.5 22 -5.3 81 81 WNW 9 15 30.24 1024 10 16.0934 0 0
5:15 am 05:15 Clear 29 -1.7 22 -5.5 76 76 WNW 13 20 30.24 1024 10 16.0934 0 0
5:35 am 05:35 Clear 28 -2.1 22 -5.5 78 78 WNW 10 17 30.25 1024 10 16.0934 0 0
5:55 am 05:55 Clear 27 -2.7 22 -5.6 81 81 WNW 8 13 30.25 1025 10 16.0934 0 0
6:15 am 06:15 Clear 27 -3 22 -5.6 82 82 WNW 8 13 30.26 1025 10 16.0934 0 0
6:35 am 06:35 Clear 27 -3 22 -5.8 81 81 WNW 9 15 30.27 1025 10 16.0934 0 0
6:55 am 06:55 Clear 26 -3.4 21 -6 82 82 WNW 7 11 30.27 1025 10 16.0934 0 0
7:15 am 07:15 Clear 25 -3.7 21 -6.2 83 83 WNW 7 11 30.26 1025 10 16.0934 0 0
7:35 am 07:35 Clear 24 -4.3 20 -6.5 85 85 WNW 7 11 30.27 1025 10 16.0934 0 0
7:55 am 07:55 Clear 24 -4.6 20 -6.7 85 85 W 6 9 30.27 1025 10 16.0934 0 0
8:15 am 08:15 Sunny 24 -4.3 20 -6.7 84 84 WNW 8 13 30.27 1025 10 16.0934 0 0
8:35 am 08:35 Sunny 25 -4 20 -6.6 82 82 W 6 9 30.27 1025 10 16.0934 0 0
8:55 am 08:55 Sunny 25 -4 20 -6.6 82 82 WNW 3 6 30.27 1025 10 16.0934 0 0
9:15 am 09:15 Sunny 27 -2.8 22 -5.8 80 80 NW 7 11 30.27 1025 10 16.0934 0 0
9:35 am 09:35 Sunny 28 -2 22 -5.6 77 77 WNW 9 15 30.26 1025 10 16.0934 0 0
9:55 am 09:55 Sunny 30 -1 23 -5.1 74 74 WNW 9 15 30.25 1024 10 16.0934 0 0
10:15 am 10:15 Sunny 32 0 22 -5.4 67 67 WNW 12 19 30.24 1024 10 16.0934 0 0
10:35 am 10:35 Sunny 34 1.2 24 -4.6 66 66 WNW 9 15 30.23 1024 10 16.0934 0 0
10:55 am 10:55 Sunny 36 2.2 23 -5 59 59 WNW 8 13 30.22 1023 10 16.0934 0 0
11:15 am 11:15 Sunny 38 3.2 24 -4.2 59 59 NW 7 11 30.21 1023 10 16.0934 0 0
11:35 am 11:35 Sunny 39 4 24 -4.3 55 55 NW 10 17 30.19 1022 10 16.0934 0 0
11:55 am 11:55 Sunny 40 4.7 24 -4.2 53 53 WNW 13 20 30.17 1022 10 16.0934 0 0
12:15 pm 12:15 Sunny 42 5.6 26 -3.6 52 52 W 10 17 30.15 1021 10 16.0934 0 0
12:35 pm 12:35 Sunny 45 7.1 24 -4.4 44 44 W 8 13 30.11 1020 10 16.0934 0 0
12:55 pm 12:55 Sunny 48 8.7 24 -4.4 40 40 W 10 17 30.08 1019 10 16.0934 0 0
1:15 pm 13:15 Sunny 49 9.3 24 -4.6 37 37 W 12 19 30.07 1018 10 16.0934 0 0
1:35 pm 13:35 Sunny 50 10 24 -4.5 36 36 W 9 15 30.06 1018 10 16.0934 0 0
1:55 pm 13:55 Sunny 51 10.6 26 -3.2 38 38 W 9 15 30.05 1017 10 16.0934 0 0
2:15 pm 14:15 Sunny 53 11.5 26 -3.4 35 35 W 6 9 30.03 1017 10 16.0934 0 0
2:35 pm 14:35 Sunny 54 12 26 -3.3 34 34 WNW 7 11 30.02 1017 10 16.0934 0 0
2:55 pm 14:55 Sunny 54 12.2 26 -3.1 35 35 W 6 9 30.02 1017 10 16.0934 0 0
3:15 pm 15:15 Sunny 53 11.9 28 -2 38 38 NW 6 9 30.02 1017 10 16.0934 0 0
3:35 pm 15:35 Sunny 54 12 29 -1.5 39 39 NNW 5 7 30.02 1017 10 16.0934 0 0
3:55 pm 15:55 Sunny 54 12 29 -1.5 39 39 WNW 5 7 30.01 1016 10 16.0934 0 0
4:15 pm 16:15 Sunny 53 11.7 31 -0.8 42 42 Calm 30.01 1016 10 16.0934 0 0
4:35 pm 16:35 Sunny 53 11.4 29 -1.8 40 40 Calm 30.01 1016 10 16.0934 0 0
4:55 pm 16:55 Sunny 49 9.7 32 0.2 52 52 NNW 5 7 30.03 1017 10 16.0934 0 0
5:15 pm 17:15 Sunny 47 8.6 32 0 55 55 Calm 30.04 1017 10 16.0934 0 0
5:35 pm 17:35 Clear 47 8.3 29 -1.9 49 49 SW 3 6 30.04 1017 10 16.0934 0 0
5:55 pm 17:55 Clear 42 5.4 29 -1.5 61 61 SW 6 9 30.06 1018 10 16.0934 0 0
6:15 pm 18:15 Clear 42 5.7 26 -3.5 52 52 SW 10 17 30.05 1018 10 16.0934 0 0
6:35 pm 18:35 Clear 41 5.2 24 -4.6 50 50 SW 8 13 30.06 1018 10 16.0934 0 0
6:55 pm 18:55 Clear 37 2.9 25 -4.1 60 60 SW 9 15 30.08 1019 10 16.0934 0 0
7:15 pm 19:15 Clear 40 4.3 24 -4.6 53 53 SW 5 7 30.05 1018 10 16.0934 0 0
7:35 pm 19:35 Clear 36 2.4 25 -3.9 63 63 SW 3 6 30.07 1018 10 16.0934 0 0
7:55 pm 19:55 Clear 37 3 24 -4.2 60 60 SW 3 6 30.06 1018 10 16.0934 0 0
8:15 pm 20:15 Clear 36 2.4 25 -3.9 63 63 SSW 3 6 30.05 1018 10 16.0934 0 0
8:35 pm 20:35 Clear 33 0.4 26 -3.3 77 77 Calm 30.07 1018 10 16.0934 0 0
8:55 pm 20:55 Clear 33 0.4 27 -2.9 79 79 Calm 30.06 1018 10 16.0934 0 0
9:15 pm 21:15 Clear 32 0 27 -2.9 81 81 Calm 30.07 1018 10 16.0934 0 0
9:35 pm 21:35 Clear 32 0 26 -3.5 78 78 NW 9 15 30.09 1019 10 16.0934 0 0
9:55 pm 21:55 Clear 32 0 26 -3.6 77 77 WNW 7 11 30.08 1019 10 16.0934 0 0
10:15 pm 22:15 Clear 31 -0.6 25 -4 78 78 W 7 11 30.08 1019 10 16.0934 0 0
10:35 pm 22:35 Clear 32 -0.1 25 -3.9 76 76 Calm 30.07 1018 10 16.0934 0 0
10:55 pm 22:55 Clear 32 0.2 26 -3.4 77 77 Calm 30.06 1018 10 16.0934 0 0
11:15 pm 23:15 Clear 32 0 27 -2.7 82 82 Calm 30.06 1018 10 16.0934 0 0
11:35 pm 23:35 Clear 32 -0.2 27 -2.9 82 82 Calm 30.05 1018 10 16.0934 0 0
11:55 pm 23:55 Clear 32 0 26 -3.4 78 78 WNW 3 6 30.05 1017 10 16.0934 0 0

Powered by AerisWeather